STARLINK-32447, 61261

Orbit data source: Space-Track

STARLINK-32447, 61261 is a payload satellite owned by SpaceX/Seattle (US) in LEO that was launched on Wed, 25 Sep 2024 UTC via an FALCON 9 launch vehicle from the Air Force Western Test Range (AFWTR). Payload-class satellites include a variety of spacecraft equipped with specific instruments for various scientific and technological missions. These include communications satellites like Starlink; space stations such as the ISS; scientific satellites like the Hubble; Earth observation satellites from companies like Planet Labs, Umbra, and HawkEye 360; GPS; miniature CubeSats for education and research; and military/defense satellites.

Loading next visibility...
Identifier
61261, 2024-175U
Orbit
LEO
Country
Flag of USUS
Related business
Manufacturer
SpaceX/Seattle
Mission
Operational Commercial Communications
Bus & Motor
STARLINK V2M, Unknown motor
Mass
730 kg wet, ~700 kg dry
Launch date (UTC)
2024-09-25 (1 year ago)
Launch vehicle
FALCON 9
Launch site
Air Force Western Test Range (AFWTR)
Object type
Payload
Rocket body
Debris
Shape & HBR
Box + 2 Pan, 17.7 m
Radar Cross Section
33.884 m², Large (>1 m²)

Expand to show TLE details & history
Last TLE update: 17 hours ago

TLE from 17 hours ago
0 STARLINK-32447
1 61261U 24175U   25346.94891271 -.00002249  00000-0 -63836-4 0  9995
2 61261  53.1624 236.9091 0001574  85.9777 274.1404 15.30193684 68173
Epoch: 2025-12-12T22:46Z
TLE epoch observation values (Epoch: 2025-12-12T22:46:26.058Z)
Latitude
0.00002°
Longitude
173.41734°
Altitude
476.056 km
Speed
7.629 km/s
True Right ascension
15h 47m 38s
True Declination
0° 00' 00"
Sunlit
Object was in daylight at epoch
Visualization orbit readout
Latitude
Unknown
Longitude
Unknown
Altitude
Unknown
Speed
Unknown
Apparent Right ascension
Unknown
Apparent Declination
Unknown
Sunlit
N/A
Visualization observer readout
Local Sidereal Time
13:55:30
Azimuth
Unknown
Elevation
Unknown
Doppler factor
Unknown
Orbital elements
Apogee altitude
476.569 km
Perigee altitude
474.411 km
Semi-major axis
6,853.627 km
Eccentricity
0.00016
Inclination
53.1624°
RAAN
236.9091°
Arg. of periapsis
85.9777°
True anomaly
274.12241°
Mean anomaly
274.1404°
Eccentric anomaly
274.13141°
Mean motion
3.82527 °/min
Orbital period
94.11 mins
BSTAR
-0.000063836
Loading maneuver chart data...
Computing Atmospheric mass density...
Loading historical data...
Loading historical data...
Loading historical data...
Loading historical data...
Loading historical data...
Loading historical data...
Loading historical data...

Documentation

Showing up to 5 results
|